Location: Oak Harbor
(48.2930°N, 122.6420°W)
Time: 01:58:36
(UTC-07:00)

Envisat - Visible Passes

Search period start: 08 May 2026 00:00
Search period end: 18 May 2026 00:00
Orbit: 761 x 762 km, 98.4° (Epoch: 7 May)

Date Brightness Start Highest point End Pass type
(mag) Time Alt. Az. Time Alt. Az. Time Alt. Az.
8 May 4.5 03:03:37 10° NE 03:08:02 29° E 03:11:55 12° SSE visible
8 May 3.6 04:42:20 10° N 04:47:05 41° WNW 04:51:48 10° SW visible
9 May 5.4 02:27:07 10° NE 02:29:48 14° E 02:32:26 10° ESE visible
9 May 3.0 04:04:18 10° NNE 04:09:23 85° WNW 04:13:51 14° SSW visible
10 May 3.8 03:26:36 10° NNE 03:31:29 46° E 03:35:38 14° S visible
11 May 4.9 02:49:26 10° NE 02:53:23 22° E 02:57:19 10° SE visible
11 May 3.3 04:27:41 10° N 04:32:38 54° WNW 04:37:33 10° SW visible
12 May 5.6 02:14:24 10° ENE 02:15:03 10° E 02:15:42 10° E visible
12 May 3.1 03:49:47 10° NNE 03:54:52 74° ESE 03:59:22 13° S visible
13 May 4.3 03:12:15 10° NNE 03:16:54 35° E 03:21:09 12° SSE visible
13 May 3.8 04:51:13 10° N 04:55:48 35° WNW 05:00:22 10° SW visible
14 May 5.3 02:35:26 10° NE 02:38:42 17° E 02:41:57 10° SE visible
14 May 3.0 04:13:06 10° N 04:18:10 72° WNW 04:23:04 11° SSW visible
15 May 3.5 03:35:19 10° NNE 03:40:19 55° E 03:44:51 12° S visible
16 May 4.7 02:58:00 10° NE 03:02:16 27° E 03:06:30 10° SSE visible
16 May 3.5 04:36:33 10° N 04:41:23 46° WNW 04:46:11 10° SW visible
17 May 5.4 02:21:49 10° ENE 02:23:59 13° E 02:26:08 10° ESE visible
17 May 3.0 03:58:33 10° NNE 04:03:40 87° ESE 04:08:33 11° SSW visible
